TELSTAR 11N

Last updated on Mon Sep 07 2026 00:02:57 GMT+0000 (Coordinated Universal Time)

1 34111U 09009A 26249.44182079 -.00000266 00000+0 00000+0 0 9999 2 34111 0.0507 270.5482 0002431 256.3900 300.1025 1.00272070 47064
UTC large
Height (km)
Speed (km/s)
/
Latitude / Longitude
Inclination (degrees)
Orbital Period (minutes)
Azimuth
Elevation
Range (km)
Doppler Factor

Next 0 passes for location: London (51.5072 / 0.1276)

No passes found over London.
TELSTAR 11N